Wetbulb
69.01 69.81 69.70 70.77 70.57 71.64 71.98 72.56 72.59 72.29 72.33 71.90 71.18 70.38 70.60 71.59 70.74 71.67 72.29 72.69 72.13 72.09 71.87 71.40 71.16 71.21 71.00 70.72 70.96 70.06 69.27 69.43 69.04 67.54 67.09 67.63 69.07 69.60 70.24 70.16 69.68 70.09 70.16
67.99 68.69 68.75 69.83 70.86 70.86 71.46 72.21 72.67 72.72 72.13 71.79 72.21 71.26 70.91 70.36 71.36 71.52 71.85 72.70 72.53 71.86 71.23 70.32 69.88 70.42 70.22 69.74 69.90 69.02 68.58 68.60 69.32 67.05 64.86 62.55 64.38 66.62 69.46 70.22 70.67 70.40 70.54
66.22 67.67 67.60 69.07 70.60 70.62 70.95 71.59 72.55 72.68 72.43 72.20 71.85 70.28 69.41 69.19 69.45 69.19 70.65 72.27 72.73 72.74 72.05 71.40 70.65 70.56 70.16 70.03 69.84 70.01 69.16 67.79 68.40 68.50 65.41 62.36 61.07 64.31 65.80 67.66 69.34 69.68 69.25
63.51 67.52 67.29 68.50 69.47 70.57 71.76 71.62 71.91 72.53 72.51 72.36 71.02 70.97 69.73 68.63 70.39 69.72 69.50 71.39 72.65 72.51 72.81 72.36 71.68 71.08 70.47 69.25 69.90 70.90 69.79 68.33 66.84 67.47 69.11 66.82 66.33 63.68 61.65 65.62 67.47 69.07 69.44
63.42 66.30 66.81 68.92 69.74 71.19 71.36 71.72 71.66 72.04 72.21 72.29 71.52 71.18 70.24 69.77 68.02 68.50 68.45 70.92 71.09 71.79 72.31 72.05 71.53 71.26 71.80 71.09 70.35 69.84 69.46 69.52 66.88 66.66 66.43 66.95 66.23 65.68 64.33 62.72 65.15 67.65 68.96
60.75 63.70 65.61 66.32 67.86 70.15 71.53 72.03 71.35 71.49 72.29 72.09 71.57 70.61 70.05 69.06 67.92 68.84 68.52 69.83 70.83 70.98 71.48 72.01 71.62 71.00 71.13 71.19 70.89 70.29 70.24 69.70 69.07 68.40 67.97 67.03 66.14 65.29 64.26 65.01 64.49 64.78 66.38
60.28 60.27 62.04 63.00 64.04 64.34 66.78 71.24 71.90 71.12 71.96 71.78 71.51 70.76 70.19 68.94 68.88 68.66 69.43 69.66 70.49 70.85 71.24 71.53 71.04 70.84 70.89 71.18 70.49 70.40 70.17 69.21 69.21 69.18 68.42 68.85 67.61 66.87 66.33 65.31 64.28 63.34 64.64
60.22 60.02 61.56 61.25 63.10 64.27 64.73 64.19 68.51 71.19 72.10 71.93 71.50 71.30 70.88 70.09 69.92 69.26 70.46 70.53 70.71 71.03 72.26 71.87 71.71 71.24 71.14 71.13 70.87 69.73 70.07 69.03 67.76 68.15 68.87 68.89 68.76 69.10 68.53 67.05 64.67 62.35 62.26
60.04 60.67 61.67 61.84 61.93 63.08 63.32 63.85 66.16 70.63 72.14 72.14 71.84 71.66 71.15 70.75 70.37 69.72 70.17 71.22 71.40 71.79 71.49 72.57 72.14 71.57 71.36 71.24 70.80 69.30 69.23 69.23 68.58 68.85 69.12 69.66 69.86 69.78 69.23 67.74 66.25 65.04 63.05
60.65 62.23 62.44 63.03 62.41 63.63 64.11 64.62 68.23 69.25 72.39 72.12 72.06 71.56 72.30 71.37 71.43 71.61 70.06 70.94 70.88 71.89 71.53 71.91 72.39 71.91 71.44 71.23 70.40 69.66 69.00 69.32 68.85 69.07 68.49 68.76 69.03 69.16 68.73 67.63 66.84 65.84 65.19
60.28 63.54 63.19 64.34 63.54 63.66 63.98 65.18 65.18 67.58 69.04 73.10 72.40 72.29 71.66 67.83 68.04 67.32 65.79 67.32 69.47 70.70 71.36 71.89 71.68 71.54 71.14 71.15 70.58 69.55 69.27 68.87 68.62 68.94 68.37 68.17 67.95 67.92 67.65 66.40 65.41 65.41 65.32
57.84 61.25 65.02 63.71 63.65 65.61 65.53 63.46 64.64 65.42 67.09 70.59 69.32 68.22 66.68 65.99 65.90 65.21 65.46 66.61 66.37 67.70 70.43 70.94 71.15 71.38 71.40 71.07 70.26 69.56 69.77 68.22 67.63 67.90 67.59 67.59 68.96 66.93 67.27 66.58 65.25 64.91 65.30
60.77 62.57 64.46 64.93 65.08 65.41 64.77 64.91 66.08 66.46 69.93 70.12 67.18 66.15 65.26 66.02 65.62 65.73 65.21 66.23 66.96 67.32 66.96 67.74 70.15 70.51 70.95 70.55 70.37 69.98 69.20 68.68 68.37 68.20 67.30 67.14 67.38 66.71 66.57 66.75 66.56 66.74 66.68
57.48 59.38 62.65 63.16 65.03 65.00 64.59 65.00 66.28 67.07 68.53 67.77 66.53 65.63 64.56 64.00 65.30 65.51 66.32 66.33 66.71 66.22 66.14 65.77 69.56 70.36 70.13 70.12 70.04 69.64 68.57 67.83 68.32 68.34 67.90 67.25 66.85 67.30 66.66 66.61 67.16 66.81 66.56
56.53 59.72 61.39 62.49 64.16 65.40 65.75 64.75 64.90 65.76 66.55 66.30 66.68 65.97 65.70 66.44 65.92 65.00 65.86 65.87 64.85 64.54 65.34 64.72 69.89 69.69 69.76 70.55 69.79 69.51 68.85 67.71 67.65 68.10 68.19 67.88 68.08 67.28 66.76 67.18 66.26 65.85 65.44
60.23 62.10 62.13 62.84 64.11 64.86 65.39 66.60 65.07 65.13 65.63 64.84 64.70 64.82 65.06 65.47 65.37 65.83 65.58 65.48 65.13 64.56 65.02 68.84 69.56 68.53 70.86 66.09 65.17 67.90 68.46 68.29 67.62 67.16 67.63 67.94 68.12 67.26 65.40 65.73 65.91 66.44 65.56
61.99 61.90 61.77 62.28 63.90 64.44 63.93 63.25 64.08 64.22 64.95 65.13 64.86 64.43 63.64 63.32 63.03 64.17 64.38 64.35 65.33 67.41 68.12 68.55 68.24 67.59 68.39 63.75 62.16 64.72 69.14 68.51 68.22 67.92 67.40 67.57 69.31 66.86 67.36 64.86 64.35 64.89 64.47
61.21 61.05 62.12 62.48 63.01 64.20 63.41 64.91 64.50 64.28 64.31 64.62 64.72 64.03 63.66 63.07 62.78 63.79 63.91 65.53 65.80 65.20 66.31 67.11 67.97 67.88 68.28 61.60 60.51 62.34 66.78 67.65 67.92 68.83 68.37 67.99 67.69 67.13 67.02 66.18 64.46 65.61 66.11
59.43 61.27 63.13 63.32 63.14 62.79 63.52 63.47 63.30 63.23 62.95 62.76 63.12 64.67 64.82 63.87 63.65 63.02 63.35 63.81 64.83 65.05 65.50 67.45 67.94 67.65 68.01 62.00 58.92 61.03 65.03 65.74 66.93 67.20 67.34 68.01 67.52 63.95 61.07 65.77 63.79 63.42 64.06
59.85 59.90 60.85 61.55 60.52 60.59 61.30 61.54 61.86 61.17 60.49 62.33 62.71 63.51 64.12 64.45 63.55 63.23 63.38 63.89 64.30 64.77 66.43 66.46 66.59 64.37 66.98 59.63 57.65 58.68 65.82 65.10 66.07 66.76 66.51 63.25 65.39 61.07 58.47 65.01 65.54 64.24 64.60
59.68 59.68 60.11 58.89 58.86 59.07 58.52 57.50 57.64 57.97 60.28 61.28 61.11 62.25 61.15 62.79 63.14 63.15 63.82 63.77 63.64 63.50 64.41 65.17 65.63 65.74 65.65 66.11 58.20 54.75 65.12 66.50 66.48 65.46 65.38 66.19 59.75 55.84 54.93 57.07 65.86 65.66 65.53
59.63 59.25 57.89 58.09 58.41 58.32 57.01 55.71 56.11 57.70 58.84 59.17 60.50 60.11 59.37 61.17 62.39 61.98 63.14 63.28 63.53 63.12 63.05 64.04 65.00 66.21 65.92 55.12 56.93 53.12 54.39 58.90 65.88 66.75 66.86 65.65 54.72 54.39 51.85 54.93 56.63 54.01 57.96
58.51 58.53 57.77 57.43 57.69 57.97 56.91 55.71 55.95 57.09 57.57 56.67 56.54 57.14 60.00 60.12 60.56 59.93 59.72 60.57 61.83 62.18 61.16 61.38 60.98 61.85 61.05 58.76 52.01 52.76 54.57 54.93 57.35 62.40 62.35 56.20 54.03 52.76 55.64 53.28 54.93 55.96 61.88
57.98 57.59 57.17 56.91 56.38 57.25 57.71 56.47 56.95 56.72 56.02 55.51 55.55 55.23 57.59 58.85 59.01 59.84 59.72 58.34 59.55 59.47 59.40 58.17 57.85 58.97 60.14 58.05 57.03 56.55 56.19 55.15 56.31 55.75 56.63 58.50 58.72 57.29 61.02 60.46 59.18 59.98 62.27
57.72 58.20 58.08 57.84 56.17 57.13 56.84 56.68 56.96 56.11 55.29 55.35 55.27 54.50 54.38 52.76 53.20 57.56 59.15 58.93 58.78 58.00 57.80 57.72 57.61 56.53 56.25 56.37 49.78 49.57 52.89 52.39 50.96 48.86 53.56 56.83 58.92 60.79 60.63 60.37 60.72 59.38 60.19
57.37 58.48 58.36 57.32 55.87 56.26 55.40 55.58 55.51 56.01 54.66 54.28 54.68 54.24 54.36 53.86 53.80 52.89 53.48 54.99 54.78 49.86 49.42 48.23 52.60 56.29 51.12 47.68 42.97 42.06 41.68 42.03 43.84 50.90 53.48 54.56 57.17 58.85 59.96 59.42 60.02 60.36 60.12
MSLP
998.53 999.76 1000.91 1001.95 1002.97 1004.08 1004.53 1005.09 1005.61 1006.62 1007.63 1008.32 1008.86 1009.55 1009.91 1010.28 1010.60 1010.76 1010.90 1011.34 1011.82 1012.33 1012.77 1013.32 1013.65 1013.92 1014.44 1014.73 1015.01 1015.20 1015.51 1015.81 1015.84 1016.42 1016.49 1016.45 1016.27 1016.15 1015.96 1015.57 1015.62 1015.71 1015.97
999.14 999.65 1000.44 1001.60 1001.95 1002.84 1003.62 1004.16 1004.88 1005.47 1006.45 1007.33 1008.09 1008.66 1009.22 1009.77 1010.01 1010.38 1010.56 1010.84 1011.21 1011.75 1012.31 1012.79 1013.23 1013.56 1013.97 1014.41 1014.83 1015.19 1015.50 1015.74 1015.92 1016.27 1016.83 1016.86 1016.37 1015.88 1015.68 1015.57 1015.52 1015.57 1015.50
997.87 998.53 999.75 1000.34 1001.48 1002.27 1002.83 1003.20 1003.95 1004.50 1005.24 1006.21 1007.34 1008.31 1009.01 1009.53 1009.87 1010.15 1010.26 1010.51 1010.68 1011.04 1011.53 1011.91 1012.46 1013.00 1013.38 1013.72 1014.09 1014.50 1014.91 1015.36 1015.54 1015.69 1016.29 1016.82 1016.52 1016.14 1015.40 1015.12 1015.08 1015.21 1015.30
998.16 998.20 998.57 999.67 1000.42 1000.69 1001.91 1002.78 1003.43 1004.16 1004.37 1005.40 1006.29 1007.17 1007.98 1008.73 1009.04 1009.38 1009.84 1010.07 1010.19 1010.68 1011.12 1011.34 1011.89 1012.40 1012.95 1013.48 1013.85 1013.99 1014.36 1014.81 1015.37 1015.64 1015.67 1015.67 1015.99 1016.15 1015.97 1015.41 1015.15 1015.14 1014.99
999.42 999.43 999.34 998.42 998.43 1000.37 1000.97 1002.07 1003.03 1003.73 1003.94 1004.39 1005.63 1006.66 1007.44 1008.25 1008.78 1009.10 1009.46 1009.76 1010.02 1010.22 1010.30 1010.72 1011.28 1011.81 1012.32 1012.76 1013.23 1013.68 1014.03 1014.29 1014.70 1014.90 1015.23 1015.64 1015.86 1016.00 1016.24 1015.81 1015.48 1015.22 1014.93
1002.17 1002.50 1002.63 1002.85 1002.86 1003.61 1003.65 1002.52 1003.08 1003.61 1004.25 1003.95 1004.64 1005.76 1006.80 1007.68 1008.38 1008.83 1009.14 1009.33 1009.44 1009.72 1009.88 1010.34 1010.87 1011.18 1011.50 1011.89 1012.43 1013.03 1013.56 1013.97 1014.24 1014.38 1014.55 1014.91 1015.31 1015.48 1015.62 1015.66 1015.31 1015.35 1014.90
1003.29 1004.36 1003.89 1004.39 1004.68 1005.31 1005.99 1006.52 1005.12 1003.45 1004.16 1004.80 1004.47 1004.89 1005.80 1006.69 1007.38 1007.82 1008.16 1008.70 1009.27 1009.62 1009.83 1010.06 1010.59 1010.87 1011.10 1011.40 1012.00 1012.55 1012.97 1013.32 1013.60 1013.64 1013.99 1014.12 1014.37 1014.60 1014.83 1015.06 1015.28 1015.41 1015.10
1004.43 1003.34 1004.63 1004.06 1005.71 1005.47 1006.20 1007.11 1007.32 1006.04 1004.34 1004.01 1004.36 1004.47 1004.98 1005.56 1006.07 1006.78 1007.59 1008.22 1008.65 1009.05 1009.51 1009.82 1010.07 1010.32 1010.75 1011.08 1011.34 1011.77 1012.18 1012.45 1012.94 1013.22 1013.41 1013.57 1013.86 1014.09 1014.37 1014.71 1015.02 1015.41 1015.29
1004.99 1004.79 1003.23 1002.58 1003.14 1004.45 1005.02 1007.65 1007.07 1005.65 1004.99 1004.75 1003.63 1004.00 1004.39 1004.94 1005.41 1006.58 1007.19 1007.43 1007.73 1008.10 1008.60 1009.07 1009.47 1009.90 1010.16 1010.50 1010.91 1011.26 1011.43 1011.80 1012.30 1012.60 1012.81 1012.86 1013.02 1013.29 1013.62 1013.81 1014.11 1014.49 1014.94
1005.46 1004.84 1003.81 1003.14 1001.69 1002.47 1005.08 1006.40 1006.28 1005.00 1004.16 1003.91 1004.13 1004.28 1004.48 1004.63 1005.24 1005.89 1006.56 1006.97 1007.18 1007.57 1007.95 1008.48 1008.85 1009.34 1009.61 1009.98 1010.32 1010.99 1010.95 1011.17 1011.58 1012.03 1012.33 1012.42 1012.38 1012.63 1012.91 1013.44 1013.65 1013.74 1014.11
1005.85 1005.15 1003.92 1002.98 1002.35 1001.81 1003.94 1001.28 1003.13 1004.10 1003.99 1003.56 1003.56 1003.84 1004.70 1005.21 1005.20 1005.84 1006.66 1007.14 1007.26 1007.29 1007.25 1007.66 1007.93 1008.63 1009.09 1009.41 1009.74 1010.35 1010.62 1010.82 1011.25 1011.69 1011.88 1011.93 1011.97 1012.16 1012.47 1012.97 1013.13 1013.25 1013.39
1005.46 1005.32 1005.01 1004.28 1004.00 1003.87 1002.91 1002.18 1001.13 1002.87 1003.49 1003.29 1003.96 1004.35 1005.59 1006.25 1006.68 1007.38 1006.21 1006.89 1007.01 1007.20 1007.51 1007.40 1007.46 1007.80 1008.56 1008.97 1009.22 1009.84 1010.10 1010.44 1010.85 1011.15 1011.60 1011.76 1011.82 1012.00 1012.14 1012.62 1013.00 1012.94 1013.01
1006.58 1005.70 1005.08 1004.43 1003.92 1003.29 1002.19 1000.08 1000.25 1000.85 1000.13 1002.22 1004.60 1005.26 1004.60 1005.75 1008.08 1006.54 1005.67 1005.62 1006.58 1006.55 1007.34 1007.27 1007.25 1007.49 1008.09 1008.67 1008.67 1009.30 1009.64 1009.91 1010.30 1010.54 1010.90 1011.11 1011.47 1011.79 1011.87 1011.93 1012.19 1012.54 1012.73
1006.60 1006.12 1005.44 1004.78 1004.03 1003.50 1002.59 1001.85 1001.01 1001.32 1002.15 1003.06 1003.61 1004.33 1004.71 1006.40 1007.62 1005.85 1004.00 1005.41 1005.99 1005.98 1006.50 1006.61 1007.44 1007.11 1007.73 1008.29 1008.18 1008.89 1009.24 1009.21 1009.54 1010.04 1010.27 1010.68 1010.97 1011.20 1011.58 1011.69 1011.72 1011.83 1012.23
1006.29 1006.30 1005.81 1004.96 1004.28 1003.94 1003.64 1003.00 1003.56 1003.89 1003.35 1003.65 1002.83 1003.30 1004.84 1005.93 1006.79 1006.61 1004.89 1005.44 1006.04 1005.80 1006.37 1007.05 1006.93 1007.09 1007.58 1007.65 1007.74 1008.34 1008.81 1008.85 1008.92 1009.47 1009.81 1009.88 1010.16 1010.31 1010.82 1011.29 1011.30 1011.60 1011.65
1005.49 1005.53 1005.14 1004.41 1003.91 1003.78 1003.64 1004.09 1004.80 1004.04 1003.73 1004.06 1003.83 1004.52 1005.44 1005.56 1005.63 1005.22 1005.47 1006.26 1006.37 1006.47 1006.93 1007.08 1007.22 1007.26 1006.96 1006.76 1007.18 1007.86 1008.11 1008.53 1008.46 1008.97 1009.08 1009.31 1009.54 1009.57 1010.03 1010.51 1010.45 1010.63 1010.93
1005.59 1005.59 1005.31 1004.81 1004.40 1004.29 1004.52 1004.76 1004.98 1004.58 1003.87 1004.25 1004.70 1004.90 1004.74 1005.19 1004.88 1005.27 1005.50 1005.84 1006.28 1006.43 1006.64 1006.80 1006.61 1006.66 1006.53 1006.26 1007.00 1007.37 1007.58 1007.79 1007.95 1008.32 1008.25 1008.92 1009.03 1009.02 1009.37 1009.77 1010.05 1010.15 1010.25
1006.16 1006.03 1005.96 1006.05 1005.63 1005.22 1005.37 1005.46 1005.22 1004.79 1005.21 1004.99 1004.81 1004.84 1004.75 1004.99 1004.78 1005.36 1005.61 1005.84 1005.73 1005.95 1005.79 1005.60 1005.42 1006.07 1006.06 1006.57 1007.08 1007.45 1007.65 1007.39 1007.53 1007.62 1007.69 1008.13 1008.32 1008.52 1008.88 1009.35 1009.72 1009.67 1009.78
1007.15 1006.93 1006.73 1006.65 1006.53 1006.18 1005.91 1005.25 1005.20 1005.31 1005.23 1005.23 1005.29 1005.12 1004.90 1005.16 1004.91 1005.36 1005.65 1005.55 1005.15 1005.36 1004.98 1004.99 1005.04 1005.19 1005.40 1006.24 1006.74 1007.26 1007.48 1007.46 1007.39 1007.24 1007.69 1007.66 1007.88 1008.12 1008.39 1009.07 1009.41 1009.24 1009.19
1007.24 1006.90 1006.39 1006.29 1006.19 1006.18 1005.88 1005.38 1005.83 1005.78 1005.84 1005.80 1005.72 1005.31 1004.80 1004.93 1005.25 1005.19 1005.30 1005.14 1004.93 1004.70 1004.61 1004.92 1004.88 1004.92 1005.28 1005.83 1006.29 1006.91 1007.01 1007.03 1007.07 1007.08 1006.77 1007.03 1007.23 1007.56 1007.83 1008.40 1008.72 1009.03 1008.75
1006.83 1006.66 1006.78 1006.96 1007.10 1006.94 1006.54 1006.53 1006.80 1006.78 1006.56 1006.11 1005.82 1005.39 1005.19 1005.48 1005.37 1005.28 1005.17 1004.78 1004.65 1004.49 1004.50 1004.85 1004.94 1005.26 1005.42 1005.77 1006.19 1006.15 1006.38 1006.35 1006.71 1006.69 1006.75 1006.45 1006.84 1006.96 1007.32 1007.56 1007.67 1007.77 1007.80
1006.67 1006.81 1007.14 1007.50 1007.40 1007.33 1007.26 1007.70 1007.54 1007.08 1006.83 1006.44 1006.15 1005.85 1005.67 1005.76 1005.53 1005.21 1004.82 1004.66 1004.65 1004.89 1005.00 1004.94 1005.18 1005.21 1005.44 1005.64 1005.53 1005.84 1006.14 1006.37 1006.48 1006.37 1006.06 1005.84 1006.39 1005.97 1006.63 1007.39 1007.20 1007.29 1007.51
1007.03 1007.21 1007.45 1007.63 1007.57 1007.62 1007.59 1007.79 1007.71 1007.46 1007.19 1006.77 1006.54 1006.17 1005.87 1005.70 1005.45 1005.35 1005.22 1005.12 1005.15 1005.27 1005.57 1005.72 1005.84 1005.94 1005.88 1005.79 1005.95 1005.82 1005.89 1005.87 1006.24 1006.06 1005.95 1006.01 1006.26 1006.33 1006.31 1006.13 1006.86 1007.04 1007.23
1007.32 1007.44 1007.60 1007.77 1007.71 1007.70 1007.86 1007.73 1007.72 1007.51 1007.37 1007.27 1006.94 1006.74 1006.52 1006.32 1006.06 1005.75 1005.57 1005.53 1005.57 1005.64 1005.76 1005.99 1006.28 1006.24 1006.33 1006.66 1006.87 1006.86 1006.99 1006.89 1006.61 1006.59 1006.66 1006.24 1005.98 1006.09 1005.84 1005.87 1006.22 1006.27 1006.29
1007.46 1007.71 1007.80 1007.89 1008.09 1007.95 1008.10 1008.00 1007.59 1007.38 1007.21 1007.15 1007.09 1007.01 1006.96 1006.64 1006.22 1005.96 1005.85 1005.63 1005.49 1005.58 1005.86 1006.03 1006.20 1006.54 1006.74 1006.99 1007.17 1007.23 1007.34 1007.15 1007.06 1006.89 1006.52 1006.14 1005.88 1005.62 1005.44 1005.23 1005.21 1005.37 1005.64
1007.66 1007.84 1008.01 1008.20 1008.33 1008.36 1008.28 1008.00 1007.67 1007.44 1007.43 1007.39 1007.06 1006.94 1006.70 1006.24 1006.07 1005.97 1005.47 1005.14 1005.14 1005.25 1005.44 1005.72 1005.92 1006.31 1006.32 1006.41 1006.81 1007.30 1007.22 1007.13 1006.92 1006.60 1006.27 1005.79 1005.36 1004.85 1004.48 1004.59 1004.47 1004.54 1004.48
Wind_Speed
29 24 20 20 19 19 21 21 20 19 14 10 10 9 10 7 7 9 11 9 9 9 9 6 6 5 7 8 9 4 6 5 4 2 2 2 5 5 5 4 5 5 7
20 21 20 20 22 23 22 22 21 21 16 12 11 8 9 3 7 8 8 10 11 9 9 8 7 7 4 6 5 4 2 2 4 3 2 2 4 3 6 5 5 7 4
25 24 23 25 22 22 24 23 22 22 19 17 11 3 3 2 3 4 6 8 11 12 11 9 7 7 6 7 7 6 7 4 4 5 4 1 5 1 2 5 5 5 4
12 22 26 23 25 25 21 21 21 21 19 19 16 17 11 11 9 6 4 6 11 11 11 11 9 9 5 5 6 6 5 4 4 1 5 2 3 3 3 2 2 2 5
24 4 15 25 28 21 23 20 20 20 19 19 17 14 13 8 4 3 7 8 9 13 13 11 9 9 7 7 8 5 5 5 4 4 3 4 3 2 2 4 4 2 3
24 22 17 17 10 5 6 16 18 18 16 19 19 18 17 10 5 7 7 7 7 8 10 11 10 9 9 9 9 8 8 8 6 4 5 5 4 5 4 6 3 3 4
17 16 20 15 15 18 17 9 9 18 16 16 18 18 17 13 12 9 10 9 7 6 9 9 9 7 8 8 7 8 8 7 8 9 6 5 4 2 3 3 1 4 3
6 15 11 16 12 12 12 18 20 13 15 18 17 15 16 12 11 12 8 8 8 8 9 10 9 10 8 8 8 5 7 6 5 7 5 4 4 4 4 4 4 2 3
6 2 6 12 14 11 14 19 20 20 14 15 15 16 15 16 14 9 9 8 9 8 10 12 11 10 10 9 8 6 8 6 5 6 6 6 6 5 5 4 5 5 4
6 5 3 3 14 10 13 18 20 14 17 15 14 11 10 11 9 8 10 11 10 11 10 11 11 10 10 9 8 6 5 7 5 5 7 6 4 5 4 4 4 4 5
5 3 6 4 9 19 20 17 7 7 9 12 14 12 5 4 6 6 5 5 2 7 10 12 11 11 11 10 9 8 8 8 6 6 7 8 5 4 4 3 3 4 4
4 5 5 6 7 11 12 13 4 3 11 12 5 11 8 11 11 8 6 4 5 5 4 6 10 11 11 10 10 10 9 8 8 7 6 7 4 7 6 5 5 4 5
5 3 4 5 5 9 10 11 12 14 10 13 15 12 12 4 3 8 5 8 3 2 5 2 6 9 9 10 10 10 9 9 8 9 8 8 6 5 4 5 6 5 5
4 5 1 4 3 4 8 8 10 13 6 14 11 9 10 12 11 8 15 10 8 6 3 8 10 7 8 11 10 10 9 8 8 8 7 7 7 8 7 6 8 6 6
3 6 2 1 2 1 3 4 4 3 8 6 6 9 6 11 15 13 7 9 10 15 14 12 10 7 8 8 9 10 9 9 7 8 9 8 9 11 9 5 6 6 5
4 4 4 7 8 6 5 3 1 3 7 4 4 3 5 4 5 6 7 10 8 7 6 6 7 9 7 10 12 11 9 8 8 8 7 7 10 9 12 13 12 10 7
5 5 6 8 7 6 5 4 3 2 5 2 4 4 4 5 5 8 8 10 9 7 11 11 9 8 7 9 11 13 7 9 9 9 8 7 7 9 7 10 13 11 13
6 4 4 6 6 5 6 6 6 9 7 7 4 2 3 5 5 6 8 7 7 7 7 6 6 5 2 9 9 10 6 5 7 9 9 8 7 7 8 7 7 8 8
4 3 6 5 4 5 3 6 8 6 6 6 5 4 3 5 5 5 6 6 5 5 3 3 6 6 5 6 7 5 4 5 8 4 6 7 7 9 10 6 7 7 8
2 5 8 8 9 7 7 11 8 7 7 5 4 4 6 6 4 4 6 3 3 3 4 4 4 6 2 3 8 7 4 5 4 5 5 10 8 10 11 9 8 9 10
8 8 9 7 6 6 7 9 7 6 4 4 4 5 6 5 5 4 3 2 2 3 4 3 3 5 6 7 10 11 5 5 6 4 5 3 8 12 12 14 10 13 8
7 8 7 6 5 6 7 6 6 5 5 6 5 5 4 3 3 5 5 4 4 3 4 3 3 2 4 6 4 4 7 2 3 6 4 1 3 4 8 7 13 7 5
5 5 5 4 4 4 5 6 4 6 6 7 7 6 4 5 5 5 5 4 5 5 4 3 3 2 3 5 11 11 8 5 1 4 7 4 7 7 6 8 12 12 6
5 4 5 5 5 4 4 3 3 4 5 6 7 6 6 4 6 3 2 2 3 3 4 3 2 3 3 3 3 3 3 3 0 1 4 6 7 10 10 6 9 5 6
5 5 5 5 3 3 3 3 4 5 6 6 6 6 2 3 4 3 4 3 3 2 3 3 4 2 1 1 3 1 2 3 3 4 3 4 4 5 6 6 6 5 5
4 5 5 3 1 1 3 4 4 5 5 6 5 4 5 4 3 4 6 6 6 4 2 3 3 1 1 3 0 5 6 7 6 2 4 6 6 6 5 5 6 6 8
Wind_Direction
202 194 187 183 172 180 176 179 170 175 174 181 182 191 200 198 189 195 192 187 183 182 184 191 184 183 192 200 196 182 186 212 171 118 309 278 240 262 252 236 246 220 202
201 195 184 182 181 179 181 177 179 171 178 181 188 192 193 185 191 188 189 187 184 184 187 187 184 187 179 189 188 177 153 213 180 149 93 284 315 266 233 229 225 233 229
195 188 183 184 178 181 184 181 178 176 176 178 177 132 119 113 167 181 186 196 190 192 193 195 190 184 185 189 185 177 175 190 207 190 153 142 231 328 292 250 241 236 212
213 190 185 180 185 191 180 178 177 183 175 173 178 182 194 200 206 191 174 186 190 193 193 197 190 186 185 183 188 186 182 150 195 248 232 203 152 190 313 317 332 246 237
27 200 197 188 192 177 181 179 178 183 181 172 178 183 193 196 186 173 168 188 194 195 194 200 186 188 184 190 188 182 185 187 165 179 157 235 234 208 172 259 281 300 247
41 33 38 30 14 333 230 176 182 186 188 176 174 184 190 180 166 192 190 193 196 196 200 196 197 195 187 185 190 189 198 207 216 210 197 188 179 209 187 231 228 238 274
68 51 43 37 35 21 2 313 235 186 184 191 180 182 184 182 190 189 199 192 193 197 210 199 198 206 197 192 183 197 201 201 204 209 215 214 207 188 191 178 185 232 264
54 116 86 67 31 22 345 334 318 251 198 184 195 186 186 191 194 197 190 195 196 192 199 206 207 205 201 201 189 184 209 206 204 204 197 194 211 205 215 209 176 253 261
346 6 146 125 84 22 353 298 287 274 222 216 193 191 183 192 199 179 180 191 188 193 194 199 203 201 196 192 186 194 196 183 193 205 209 204 214 207 212 193 182 191 234
349 341 344 34 92 60 325 281 265 279 232 211 213 198 202 204 193 176 183 189 191 196 188 197 200 195 194 186 180 202 186 190 195 204 202 210 204 201 181 197 199 186 193
338 356 307 293 154 155 206 262 270 238 284 236 207 195 126 103 125 110 90 114 67 224 185 192 192 193 188 187 182 191 193 191 201 208 211 222 208 198 186 186 185 188 177
317 294 252 273 281 251 187 221 176 264 253 250 62 74 58 50 39 334 120 71 94 66 358 211 192 187 189 185 182 196 198 189 199 208 206 229 205 205 186 180 207 203 206
35 263 275 274 290 308 322 350 4 342 303 136 119 125 101 12 200 167 278 132 167 75 312 2 240 194 186 190 188 197 195 190 206 211 200 219 206 229 209 198 193 202 200
43 322 249 247 295 328 353 13 2 21 69 131 135 185 186 167 211 196 154 167 161 174 213 270 254 211 191 198 186 196 202 193 200 212 201 208 200 213 216 212 214 198 193
121 289 285 319 45 20 159 26 18 82 73 81 155 169 236 163 176 196 194 174 178 192 209 235 231 204 201 198 189 200 208 207 192 205 215 211 207 204 210 202 216 199 203
352 40 5 6 14 30 63 112 210 93 109 122 122 159 165 162 173 172 192 234 229 253 225 240 236 224 211 193 198 200 199 218 201 205 206 217 219 216 222 221 219 199 196
68 53 18 23 3 21 33 36 11 36 67 130 159 193 195 192 169 177 188 198 208 210 209 212 200 208 233 205 207 217 208 205 210 213 199 216 224 210 213 231 236 218 215
73 55 56 38 13 28 33 72 63 53 56 51 63 200 199 215 189 184 184 203 185 220 208 193 165 173 225 243 231 230 234 222 218 217 209 206 220 212 204 218 221 222 219
298 145 105 101 65 54 19 75 59 49 48 40 35 20 34 232 216 204 205 218 181 195 209 202 187 182 162 256 265 208 223 260 241 219 233 206 213 224 211 209 227 235 237
244 84 65 63 53 30 18 55 38 38 35 28 21 20 20 27 32 195 195 207 179 152 112 107 93 117 111 285 242 220 195 227 213 231 205 221 231 217 205 203 210 232 234
98 82 71 72 60 44 44 44 33 20 338 4 24 38 34 15 17 25 345 115 70 56 87 103 179 197 214 219 215 196 193 211 233 225 232 207 234 231 232 212 206 229 215
88 84 80 74 70 71 69 47 27 344 16 20 3 7 33 15 15 24 18 34 51 20 2 25 312 313 81 26 333 227 220 353 242 246 204 216 163 140 234 208 235 261 254
99 93 103 91 66 73 71 59 2 20 9 16 13 356 338 2 10 20 27 53 57 76 63 53 34 32 84 65 45 39 8 340 252 299 307 321 247 281 247 228 240 228 219
121 110 85 63 45 36 36 37 3 16 34 22 15 16 13 337 328 346 4 46 92 86 89 82 49 8 37 34 19 11 350 330 66 323 291 265 252 242 225 211 237 215 205
109 109 102 97 63 39 41 356 13 20 15 7 0 355 359 353 334 301 239 222 246 175 165 172 153 139 70 209 237 271 314 311 310 311 250 239 217 211 223 226 222 203 211
132 121 106 99 107 283 350 340 357 21 6 353 352 334 324 330 338 343 334 247 210 171 175 140 128 136 142 58 316 303 279 267 268 244 261 276 271 260 242 226 231 218 204